Location: Bottenau
(48.5138°N, 8.0462°E)
Time: 04:16:54
(UTC+00:00)

Cosmos 468 Rocket - Pass Details

Date: 18 April 2021
Orbit: 745 x 779 km, 74.0° (Epoch: 09 May)

Event Time Altitude Azimuth Distance (km) Brightness Sun altitude
Rises 21:36:10 0° 336° (NNW) 3,199 8.6 -25.5°
Reaches altitude 10° 21:38:32 10° 337° (NNW) 2,271 7.5 -25.7°
Maximum altitude 21:43:41 89° 257° (WSW) 754 3.8 -26.1°
Enters shadow 21:43:44 88° 191° (S) 754 3.8 -26.1°
